Data supplied by UK-AIR on 5/4/2008
All Data GMT hour ending 
Status: R =Ratified P=Provisional,P*=As supplied
,,Cambridge Roadside,,,,,,,,,,,,,,,,,,,,,,,
Date,time,"Nitric oxide",status,unit,"Nitrogen dioxide",status,unit,"Nitrogen oxides as nitrogen dioxide",status,unit
 
01-01-2001,01:00,4,R,ugm-3,11,R,ugm-3,17,R,ugm-3
01-01-2001,02:00,6,R,ugm-3,13,R,ugm-3,23,R,ugm-3
01-01-2001,03:00,4,R,ugm-3,10,R,ugm-3,15,R,ugm-3
01-01-2001,04:00,3,R,ugm-3,8,R,ugm-3,11,R,ugm-3
01-01-2001,05:00,1,R,ugm-3,10,R,ugm-3,11,R,ugm-3
01-01-2001,06:00,1,R,ugm-3,8,R,ugm-3,10,R,ugm-3
01-01-2001,07:00,1,R,ugm-3,10,R,ugm-3,11,R,ugm-3
01-01-2001,08:00,,,,,,,,,
01-01-2001,09:00,1,R,ugm-3,8,R,ugm-3,10,R,ugm-3
01-01-2001,10:00,1,R,ugm-3,10,R,ugm-3,11,R,ugm-3
01-01-2001,11:00,5,R,ugm-3,13,R,ugm-3,21,R,ugm-3
01-01-2001,12:00,6,R,ugm-3,17,R,ugm-3,27,R,ugm-3
01-01-2001,13:00,9,R,ugm-3,17,R,ugm-3,31,R,ugm-3
01-01-2001,14:00,13,R,ugm-3,21,R,ugm-3,40,R,ugm-3
01-01-2001,15:00,13,R,ugm-3,19,R,ugm-3,38,R,ugm-3
01-01-2001,16:00,9,R,ugm-3,25,R,ugm-3,38,R,ugm-3
01-01-2001,17:00,10,R,ugm-3,27,R,ugm-3,42,R,ugm-3
01-01-2001,18:00,6,R,ugm-3,23,R,ugm-3,32,R,ugm-3
01-01-2001,19:00,4,R,ugm-3,23,R,ugm-3,29,R,ugm-3
01-01-2001,20:00,3,R,ugm-3,23,R,ugm-3,27,R,ugm-3
01-01-2001,21:00,6,R,ugm-3,17,R,ugm-3,27,R,ugm-3
01-01-2001,22:00,4,R,ugm-3,17,R,ugm-3,23,R,ugm-3
01-01-2001,23:00,5,R,ugm-3,15,R,ugm-3,23,R,ugm-3
01-01-2001,24:00,3,R,ugm-3,10,R,ugm-3,13,R,ugm-3
02-01-2001,01:00,1,R,ugm-3,6,R,ugm-3,8,R,ugm-3
02-01-2001,02:00,,,,,,,,,
02-01-2001,03:00,,,,,,,,,
02-01-2001,04:00,,,,,,,,,
02-01-2001,05:00,0,R,ugm-3,4,R,ugm-3,4,R,ugm-3
02-01-2001,06:00,0,R,ugm-3,6,R,ugm-3,6,R,ugm-3
02-01-2001,07:00,10,R,ugm-3,17,R,ugm-3,32,R,ugm-3
02-01-2001,08:00,43,R,ugm-3,40,R,ugm-3,105,R,ugm-3
02-01-2001,09:00,79,R,ugm-3,59,R,ugm-3,180,R,ugm-3
02-01-2001,10:00,43,R,ugm-3,42,R,ugm-3,107,R,ugm-3
02-01-2001,11:00,39,R,ugm-3,42,R,ugm-3,101,R,ugm-3
02-01-2001,12:00,50,R,ugm-3,36,R,ugm-3,113,R,ugm-3
02-01-2001,13:00,33,R,ugm-3,31,R,ugm-3,80,R,ugm-3
02-01-2001,14:00,33,R,ugm-3,32,R,ugm-3,82,R,ugm-3
02-01-2001,15:00,40,R,ugm-3,40,R,ugm-3,101,R,ugm-3
02-01-2001,16:00,49,R,ugm-3,44,R,ugm-3,118,R,ugm-3
02-01-2001,17:00,61,R,ugm-3,52,R,ugm-3,145,R,ugm-3
02-01-2001,18:00,84,R,ugm-3,55,R,ugm-3,183,R,ugm-3
02-01-2001,19:00,25,R,ugm-3,31,R,ugm-3,69,R,ugm-3
02-01-2001,20:00,20,R,ugm-3,23,R,ugm-3,53,R,ugm-3
02-01-2001,21:00,13,R,ugm-3,21,R,ugm-3,40,R,ugm-3
02-01-2001,22:00,10,R,ugm-3,21,R,ugm-3,36,R,ugm-3
02-01-2001,23:00,19,R,ugm-3,23,R,ugm-3,52,R,ugm-3
02-01-2001,24:00,11,R,ugm-3,23,R,ugm-3,40,R,ugm-3
03-01-2001,01:00,3,R,ugm-3,11,R,ugm-3,15,R,ugm-3
03-01-2001,02:00,0,R,ugm-3,6,R,ugm-3,6,R,ugm-3
03-01-2001,03:00,0,R,ugm-3,4,R,ugm-3,4,R,ugm-3
03-01-2001,04:00,0,R,ugm-3,4,R,ugm-3,4,R,ugm-3
03-01-2001,05:00,1,R,ugm-3,8,R,ugm-3,10,R,ugm-3
03-01-2001,06:00,1,R,ugm-3,11,R,ugm-3,13,R,ugm-3
03-01-2001,07:00,14,R,ugm-3,25,R,ugm-3,46,R,ugm-3
03-01-2001,08:00,83,R,ugm-3,50,R,ugm-3,176,R,ugm-3
03-01-2001,09:00,155,R,ugm-3,69,R,ugm-3,306,R,ugm-3
03-01-2001,10:00,93,R,ugm-3,57,R,ugm-3,199,R,ugm-3
03-01-2001,11:00,78,R,ugm-3,50,R,ugm-3,168,R,ugm-3
03-01-2001,12:00,73,R,ugm-3,57,R,ugm-3,168,R,ugm-3
03-01-2001,13:00,78,R,ugm-3,59,R,ugm-3,178,R,ugm-3
03-01-2001,14:00,76,R,ugm-3,57,R,ugm-3,174,R,ugm-3
03-01-2001,15:00,80,R,ugm-3,59,R,ugm-3,181,R,ugm-3
03-01-2001,16:00,124,R,ugm-3,71,R,ugm-3,260,R,ugm-3
03-01-2001,17:00,83,R,ugm-3,53,R,ugm-3,180,R,ugm-3
03-01-2001,18:00,68,R,ugm-3,53,R,ugm-3,157,R,ugm-3
03-01-2001,19:00,28,R,ugm-3,40,R,ugm-3,82,R,ugm-3
03-01-2001,20:00,20,R,ugm-3,34,R,ugm-3,65,R,ugm-3
03-01-2001,21:00,14,R,ugm-3,25,R,ugm-3,46,R,ugm-3
03-01-2001,22:00,13,R,ugm-3,23,R,ugm-3,42,R,ugm-3
03-01-2001,23:00,21,R,ugm-3,29,R,ugm-3,61,R,ugm-3
03-01-2001,24:00,6,R,ugm-3,21,R,ugm-3,31,R,ugm-3
04-01-2001,01:00,1,R,ugm-3,11,R,ugm-3,13,R,ugm-3
04-01-2001,02:00,,,,,,,,,
04-01-2001,03:00,,,,,,,,,
04-01-2001,04:00,,,,,,,,,
04-01-2001,05:00,1,R,ugm-3,11,R,ugm-3,13,R,ugm-3
04-01-2001,06:00,1,R,ugm-3,17,R,ugm-3,19,R,ugm-3
04-01-2001,07:00,19,R,ugm-3,38,R,ugm-3,67,R,ugm-3
04-01-2001,08:00,59,R,ugm-3,44,R,ugm-3,134,R,ugm-3
04-01-2001,09:00,74,R,ugm-3,50,R,ugm-3,162,R,ugm-3
04-01-2001,10:00,114,R,ugm-3,55,R,ugm-3,229,R,ugm-3
04-01-2001,11:00,114,R,ugm-3,61,R,ugm-3,235,R,ugm-3
04-01-2001,12:00,114,R,ugm-3,67,R,ugm-3,241,R,ugm-3
04-01-2001,13:00,96,R,ugm-3,59,R,ugm-3,206,R,ugm-3
04-01-2001,14:00,88,R,ugm-3,57,R,ugm-3,191,R,ugm-3
04-01-2001,15:00,83,R,ugm-3,52,R,ugm-3,178,R,ugm-3
04-01-2001,16:00,76,R,ugm-3,53,R,ugm-3,170,R,ugm-3
04-01-2001,17:00,100,R,ugm-3,55,R,ugm-3,208,R,ugm-3
04-01-2001,18:00,101,R,ugm-3,53,R,ugm-3,208,R,ugm-3
04-01-2001,19:00,90,R,ugm-3,53,R,ugm-3,191,R,ugm-3
04-01-2001,20:00,40,R,ugm-3,48,R,ugm-3,109,R,ugm-3
04-01-2001,21:00,35,R,ugm-3,48,R,ugm-3,101,R,ugm-3
04-01-2001,22:00,21,R,ugm-3,32,R,ugm-3,65,R,ugm-3
04-01-2001,23:00,33,R,ugm-3,36,R,ugm-3,86,R,ugm-3
04-01-2001,24:00,18,R,ugm-3,29,R,ugm-3,55,R,ugm-3
05-01-2001,01:00,3,R,ugm-3,23,R,ugm-3,27,R,ugm-3
05-01-2001,02:00,1,R,ugm-3,23,R,ugm-3,25,R,ugm-3
05-01-2001,03:00,3,R,ugm-3,29,R,ugm-3,32,R,ugm-3
05-01-2001,04:00,,,,,,,,,
05-01-2001,05:00,3,R,ugm-3,21,R,ugm-3,25,R,ugm-3
05-01-2001,06:00,1,R,ugm-3,23,R,ugm-3,25,R,ugm-3
05-01-2001,07:00,9,R,ugm-3,31,R,ugm-3,44,R,ugm-3
05-01-2001,08:00,28,R,ugm-3,36,R,ugm-3,78,R,ugm-3
05-01-2001,09:00,33,R,ugm-3,40,R,ugm-3,90,R,ugm-3
05-01-2001,10:00,40,R,ugm-3,36,R,ugm-3,97,R,ugm-3
05-01-2001,11:00,83,R,ugm-3,48,R,ugm-3,174,R,ugm-3
05-01-2001,12:00,149,R,ugm-3,57,R,ugm-3,285,R,ugm-3
05-01-2001,13:00,120,R,ugm-3,53,R,ugm-3,237,R,ugm-3
05-01-2001,14:00,118,R,ugm-3,52,R,ugm-3,231,R,ugm-3
05-01-2001,15:00,118,R,ugm-3,53,R,ugm-3,233,R,ugm-3
05-01-2001,16:00,151,R,ugm-3,50,R,ugm-3,281,R,ugm-3
05-01-2001,17:00,156,R,ugm-3,55,R,ugm-3,294,R,ugm-3
05-01-2001,18:00,139,R,ugm-3,50,R,ugm-3,262,R,ugm-3
05-01-2001,19:00,125,R,ugm-3,50,R,ugm-3,241,R,ugm-3
05-01-2001,20:00,111,R,ugm-3,44,R,ugm-3,214,R,ugm-3
05-01-2001,21:00,121,R,ugm-3,48,R,ugm-3,233,R,ugm-3
05-01-2001,22:00,108,R,ugm-3,50,R,ugm-3,214,R,ugm-3
05-01-2001,23:00,125,R,ugm-3,48,R,ugm-3,239,R,ugm-3
05-01-2001,24:00,104,R,ugm-3,48,R,ugm-3,206,R,ugm-3
06-01-2001,01:00,46,R,ugm-3,44,R,ugm-3,115,R,ugm-3
06-01-2001,02:00,16,R,ugm-3,36,R,ugm-3,61,R,ugm-3
06-01-2001,03:00,20,R,ugm-3,38,R,ugm-3,69,R,ugm-3
06-01-2001,04:00,14,R,ugm-3,40,R,ugm-3,61,R,ugm-3
06-01-2001,05:00,15,R,ugm-3,38,R,ugm-3,61,R,ugm-3
06-01-2001,06:00,5,R,ugm-3,21,R,ugm-3,29,R,ugm-3
06-01-2001,07:00,26,R,ugm-3,25,R,ugm-3,65,R,ugm-3
06-01-2001,08:00,51,R,ugm-3,34,R,ugm-3,113,R,ugm-3
06-01-2001,09:00,70,R,ugm-3,38,R,ugm-3,145,R,ugm-3
06-01-2001,10:00,71,R,ugm-3,42,R,ugm-3,151,R,ugm-3
06-01-2001,11:00,71,R,ugm-3,36,R,ugm-3,145,R,ugm-3
06-01-2001,12:00,63,R,ugm-3,40,R,ugm-3,136,R,ugm-3
06-01-2001,13:00,78,R,ugm-3,44,R,ugm-3,162,R,ugm-3
06-01-2001,14:00,71,R,ugm-3,42,R,ugm-3,151,R,ugm-3
06-01-2001,15:00,79,R,ugm-3,42,R,ugm-3,162,R,ugm-3
06-01-2001,16:00,88,R,ugm-3,46,R,ugm-3,180,R,ugm-3
06-01-2001,17:00,128,R,ugm-3,52,R,ugm-3,246,R,ugm-3
06-01-2001,18:00,134,R,ugm-3,53,R,ugm-3,258,R,ugm-3
06-01-2001,19:00,104,R,ugm-3,50,R,ugm-3,208,R,ugm-3
06-01-2001,20:00,78,R,ugm-3,46,R,ugm-3,164,R,ugm-3
06-01-2001,21:00,70,R,ugm-3,50,R,ugm-3,157,R,ugm-3
06-01-2001,22:00,59,R,ugm-3,42,R,ugm-3,132,R,ugm-3
06-01-2001,23:00,116,R,ugm-3,44,R,ugm-3,222,R,ugm-3
06-01-2001,24:00,71,R,ugm-3,40,R,ugm-3,149,R,ugm-3
07-01-2001,01:00,54,R,ugm-3,52,R,ugm-3,134,R,ugm-3
07-01-2001,02:00,18,R,ugm-3,31,R,ugm-3,57,R,ugm-3
07-01-2001,03:00,14,R,ugm-3,25,R,ugm-3,46,R,ugm-3
07-01-2001,04:00,5,R,ugm-3,19,R,ugm-3,27,R,ugm-3
07-01-2001,05:00,1,R,ugm-3,8,R,ugm-3,10,R,ugm-3
07-01-2001,06:00,,,,,,,,,
07-01-2001,07:00,10,R,ugm-3,15,R,ugm-3,31,R,ugm-3
07-01-2001,08:00,5,R,ugm-3,11,R,ugm-3,19,R,ugm-3
07-01-2001,09:00,9,R,ugm-3,15,R,ugm-3,29,R,ugm-3
07-01-2001,10:00,18,R,ugm-3,13,R,ugm-3,40,R,ugm-3
07-01-2001,11:00,28,R,ugm-3,19,R,ugm-3,61,R,ugm-3
07-01-2001,12:00,29,R,ugm-3,25,R,ugm-3,69,R,ugm-3
07-01-2001,13:00,34,R,ugm-3,31,R,ugm-3,82,R,ugm-3
07-01-2001,14:00,40,R,ugm-3,34,R,ugm-3,96,R,ugm-3
07-01-2001,15:00,36,R,ugm-3,34,R,ugm-3,90,R,ugm-3
07-01-2001,16:00,54,R,ugm-3,40,R,ugm-3,122,R,ugm-3
07-01-2001,17:00,65,R,ugm-3,42,R,ugm-3,141,R,ugm-3
07-01-2001,18:00,63,R,ugm-3,42,R,ugm-3,138,R,ugm-3
07-01-2001,19:00,43,R,ugm-3,40,R,ugm-3,105,R,ugm-3
07-01-2001,20:00,23,R,ugm-3,34,R,ugm-3,69,R,ugm-3
07-01-2001,21:00,20,R,ugm-3,32,R,ugm-3,63,R,ugm-3
07-01-2001,22:00,25,R,ugm-3,32,R,ugm-3,71,R,ugm-3
07-01-2001,23:00,10,R,ugm-3,19,R,ugm-3,34,R,ugm-3
07-01-2001,24:00,9,R,ugm-3,21,R,ugm-3,34,R,ugm-3
08-01-2001,01:00,3,R,ugm-3,15,R,ugm-3,19,R,ugm-3
08-01-2001,02:00,3,R,ugm-3,13,R,ugm-3,17,R,ugm-3
08-01-2001,03:00,1,R,ugm-3,10,R,ugm-3,11,R,ugm-3
08-01-2001,04:00,1,R,ugm-3,10,R,ugm-3,11,R,ugm-3
08-01-2001,05:00,3,R,ugm-3,11,R,ugm-3,15,R,ugm-3
08-01-2001,06:00,3,R,ugm-3,13,R,ugm-3,17,R,ugm-3
08-01-2001,07:00,41,R,ugm-3,38,R,ugm-3,101,R,ugm-3
08-01-2001,08:00,100,R,ugm-3,46,R,ugm-3,199,R,ugm-3
08-01-2001,09:00,116,R,ugm-3,48,R,ugm-3,225,R,ugm-3
08-01-2001,10:00,108,R,ugm-3,52,R,ugm-3,216,R,ugm-3
08-01-2001,11:00,125,R,ugm-3,55,R,ugm-3,246,R,ugm-3
08-01-2001,12:00,100,R,ugm-3,50,R,ugm-3,202,R,ugm-3
08-01-2001,13:00,71,R,ugm-3,44,R,ugm-3,153,R,ugm-3
08-01-2001,14:00,85,R,ugm-3,48,R,ugm-3,178,R,ugm-3
08-01-2001,15:00,143,R,ugm-3,57,R,ugm-3,275,R,ugm-3
08-01-2001,16:00,139,R,ugm-3,55,R,ugm-3,267,R,ugm-3
08-01-2001,17:00,210,R,ugm-3,67,R,ugm-3,388,R,ugm-3
08-01-2001,18:00,169,R,ugm-3,59,R,ugm-3,317,R,ugm-3
08-01-2001,19:00,111,R,ugm-3,53,R,ugm-3,223,R,ugm-3
08-01-2001,20:00,39,R,ugm-3,38,R,ugm-3,97,R,ugm-3
08-01-2001,21:00,44,R,ugm-3,44,R,ugm-3,111,R,ugm-3
08-01-2001,22:00,43,R,ugm-3,44,R,ugm-3,109,R,ugm-3
08-01-2001,23:00,49,R,ugm-3,42,R,ugm-3,117,R,ugm-3
08-01-2001,24:00,34,R,ugm-3,36,R,ugm-3,88,R,ugm-3
09-01-2001,01:00,14,R,ugm-3,36,R,ugm-3,57,R,ugm-3
09-01-2001,02:00,,,,,,,,,
09-01-2001,03:00,6,R,ugm-3,31,R,ugm-3,40,R,ugm-3
09-01-2001,04:00,6,R,ugm-3,32,R,ugm-3,42,R,ugm-3
09-01-2001,05:00,10,R,ugm-3,31,R,ugm-3,46,R,ugm-3
09-01-2001,06:00,11,R,ugm-3,32,R,ugm-3,50,R,ugm-3
09-01-2001,07:00,51,R,ugm-3,42,R,ugm-3,120,R,ugm-3
09-01-2001,08:00,154,R,ugm-3,59,R,ugm-3,294,R,ugm-3
09-01-2001,09:00,214,R,ugm-3,61,R,ugm-3,388,R,ugm-3
09-01-2001,10:00,206,R,ugm-3,59,R,ugm-3,374,R,ugm-3
09-01-2001,11:00,219,R,ugm-3,65,R,ugm-3,399,R,ugm-3
09-01-2001,12:00,198,R,ugm-3,59,R,ugm-3,361,R,ugm-3
09-01-2001,13:00,166,R,ugm-3,61,R,ugm-3,315,R,ugm-3
09-01-2001,14:00,149,R,ugm-3,63,R,ugm-3,290,R,ugm-3
09-01-2001,15:00,101,R,ugm-3,63,R,ugm-3,218,R,ugm-3
09-01-2001,16:00,151,R,ugm-3,69,R,ugm-3,300,R,ugm-3
09-01-2001,17:00,191,R,ugm-3,67,R,ugm-3,359,R,ugm-3
09-01-2001,18:00,150,R,ugm-3,55,R,ugm-3,285,R,ugm-3
09-01-2001,19:00,178,R,ugm-3,53,R,ugm-3,325,R,ugm-3
09-01-2001,20:00,119,R,ugm-3,46,R,ugm-3,227,R,ugm-3
09-01-2001,21:00,120,R,ugm-3,44,R,ugm-3,227,R,ugm-3
09-01-2001,22:00,133,R,ugm-3,46,R,ugm-3,248,R,ugm-3
09-01-2001,23:00,115,R,ugm-3,42,R,ugm-3,218,R,ugm-3
09-01-2001,24:00,66,R,ugm-3,38,R,ugm-3,139,R,ugm-3
10-01-2001,01:00,24,R,ugm-3,34,R,ugm-3,71,R,ugm-3
10-01-2001,02:00,15,R,ugm-3,32,R,ugm-3,55,R,ugm-3
10-01-2001,03:00,10,R,ugm-3,32,R,ugm-3,48,R,ugm-3
10-01-2001,04:00,8,R,ugm-3,29,R,ugm-3,40,R,ugm-3
10-01-2001,05:00,9,R,ugm-3,29,R,ugm-3,42,R,ugm-3
10-01-2001,06:00,11,R,ugm-3,31,R,ugm-3,48,R,ugm-3
10-01-2001,07:00,19,R,ugm-3,29,R,ugm-3,57,R,ugm-3
10-01-2001,08:00,30,R,ugm-3,27,R,ugm-3,73,R,ugm-3
10-01-2001,09:00,70,R,ugm-3,34,R,ugm-3,141,R,ugm-3
10-01-2001,10:00,50,R,ugm-3,31,R,ugm-3,107,R,ugm-3
10-01-2001,11:00,54,R,ugm-3,29,R,ugm-3,111,R,ugm-3
10-01-2001,12:00,59,R,ugm-3,31,R,ugm-3,120,R,ugm-3
10-01-2001,13:00,51,R,ugm-3,34,R,ugm-3,113,R,ugm-3
10-01-2001,14:00,38,R,ugm-3,31,R,ugm-3,88,R,ugm-3
10-01-2001,15:00,30,R,ugm-3,27,R,ugm-3,73,R,ugm-3
10-01-2001,16:00,26,R,ugm-3,25,R,ugm-3,65,R,ugm-3
10-01-2001,17:00,34,R,ugm-3,31,R,ugm-3,82,R,ugm-3
10-01-2001,18:00,26,R,ugm-3,29,R,ugm-3,69,R,ugm-3
10-01-2001,19:00,15,R,ugm-3,21,R,ugm-3,44,R,ugm-3
10-01-2001,20:00,9,R,ugm-3,17,R,ugm-3,31,R,ugm-3
10-01-2001,21:00,6,R,ugm-3,15,R,ugm-3,25,R,ugm-3
10-01-2001,22:00,5,R,ugm-3,13,R,ugm-3,21,R,ugm-3
10-01-2001,23:00,3,R,ugm-3,8,R,ugm-3,11,R,ugm-3
10-01-2001,24:00,3,R,ugm-3,4,R,ugm-3,8,R,ugm-3
11-01-2001,01:00,1,R,ugm-3,2,R,ugm-3,4,R,ugm-3
11-01-2001,02:00,0,R,ugm-3,2,R,ugm-3,2,R,ugm-3
11-01-2001,03:00,,,,,,,,,
11-01-2001,04:00,,,,,,,,,
11-01-2001,05:00,,,,,,,,,
11-01-2001,06:00,0,R,ugm-3,4,R,ugm-3,4,R,ugm-3
11-01-2001,07:00,11,R,ugm-3,15,R,ugm-3,32,R,ugm-3
11-01-2001,08:00,19,R,ugm-3,29,R,ugm-3,57,R,ugm-3
11-01-2001,09:00,34,R,ugm-3,38,R,ugm-3,90,R,ugm-3
11-01-2001,10:00,23,R,ugm-3,29,R,ugm-3,63,R,ugm-3
11-01-2001,11:00,19,R,ugm-3,21,R,ugm-3,50,R,ugm-3
11-01-2001,12:00,16,R,ugm-3,21,R,ugm-3,46,R,ugm-3
11-01-2001,13:00,18,R,ugm-3,21,R,ugm-3,48,R,ugm-3
11-01-2001,14:00,16,R,ugm-3,21,R,ugm-3,46,R,ugm-3
11-01-2001,15:00,21,R,ugm-3,29,R,ugm-3,61,R,ugm-3
11-01-2001,16:00,19,R,ugm-3,31,R,ugm-3,59,R,ugm-3
11-01-2001,17:00,,,,,,,,,
11-01-2001,18:00,21,R,ugm-3,32,R,ugm-3,65,R,ugm-3
11-01-2001,19:00,15,R,ugm-3,27,R,ugm-3,50,R,ugm-3
11-01-2001,20:00,10,R,ugm-3,25,R,ugm-3,40,R,ugm-3
11-01-2001,21:00,6,R,ugm-3,23,R,ugm-3,32,R,ugm-3
11-01-2001,22:00,4,R,ugm-3,23,R,ugm-3,29,R,ugm-3
11-01-2001,23:00,4,R,ugm-3,21,R,ugm-3,27,R,ugm-3
11-01-2001,24:00,4,R,ugm-3,17,R,ugm-3,23,R,ugm-3
12-01-2001,01:00,0,R,ugm-3,13,R,ugm-3,13,R,ugm-3
12-01-2001,02:00,0,R,ugm-3,10,R,ugm-3,10,R,ugm-3
12-01-2001,03:00,0,R,ugm-3,8,R,ugm-3,8,R,ugm-3
12-01-2001,04:00,,,,,,,,,
12-01-2001,05:00,0,R,ugm-3,8,R,ugm-3,8,R,ugm-3
12-01-2001,06:00,3,R,ugm-3,17,R,ugm-3,21,R,ugm-3
12-01-2001,07:00,6,R,ugm-3,25,R,ugm-3,34,R,ugm-3
12-01-2001,08:00,30,R,ugm-3,34,R,ugm-3,80,R,ugm-3
12-01-2001,09:00,56,R,ugm-3,36,R,ugm-3,122,R,ugm-3
12-01-2001,10:00,68,R,ugm-3,34,R,ugm-3,138,R,ugm-3
12-01-2001,11:00,76,R,ugm-3,34,R,ugm-3,151,R,ugm-3
12-01-2001,12:00,73,R,ugm-3,34,R,ugm-3,145,R,ugm-3
12-01-2001,13:00,58,R,ugm-3,34,R,ugm-3,122,R,ugm-3
12-01-2001,14:00,45,R,ugm-3,32,R,ugm-3,101,R,ugm-3
12-01-2001,15:00,40,R,ugm-3,34,R,ugm-3,96,R,ugm-3
12-01-2001,16:00,36,R,ugm-3,34,R,ugm-3,90,R,ugm-3
12-01-2001,17:00,41,R,ugm-3,36,R,ugm-3,99,R,ugm-3
12-01-2001,18:00,31,R,ugm-3,38,R,ugm-3,86,R,ugm-3
12-01-2001,19:00,30,R,ugm-3,38,R,ugm-3,84,R,ugm-3
12-01-2001,20:00,28,R,ugm-3,38,R,ugm-3,80,R,ugm-3
12-01-2001,21:00,25,R,ugm-3,34,R,ugm-3,73,R,ugm-3
12-01-2001,22:00,11,R,ugm-3,29,R,ugm-3,46,R,ugm-3
12-01-2001,23:00,5,R,ugm-3,23,R,ugm-3,31,R,ugm-3
12-01-2001,24:00,11,R,ugm-3,27,R,ugm-3,44,R,ugm-3
13-01-2001,01:00,4,R,ugm-3,25,R,ugm-3,31,R,ugm-3
13-01-2001,02:00,3,R,ugm-3,25,R,ugm-3,29,R,ugm-3
13-01-2001,03:00,3,R,ugm-3,23,R,ugm-3,27,R,ugm-3
13-01-2001,04:00,1,R,ugm-3,17,R,ugm-3,19,R,ugm-3
13-01-2001,05:00,1,R,ugm-3,15,R,ugm-3,17,R,ugm-3
13-01-2001,06:00,4,R,ugm-3,19,R,ugm-3,25,R,ugm-3
13-01-2001,07:00,23,R,ugm-3,25,R,ugm-3,59,R,ugm-3
13-01-2001,08:00,59,R,ugm-3,31,R,ugm-3,120,R,ugm-3
13-01-2001,09:00,106,R,ugm-3,34,R,ugm-3,197,R,ugm-3
13-01-2001,10:00,111,R,ugm-3,34,R,ugm-3,204,R,ugm-3
13-01-2001,11:00,98,R,ugm-3,32,R,ugm-3,181,R,ugm-3
13-01-2001,12:00,88,R,ugm-3,31,R,ugm-3,164,R,ugm-3
13-01-2001,13:00,70,R,ugm-3,34,R,ugm-3,141,R,ugm-3
13-01-2001,14:00,51,R,ugm-3,32,R,ugm-3,111,R,ugm-3
13-01-2001,15:00,35,R,ugm-3,32,R,ugm-3,86,R,ugm-3
13-01-2001,16:00,29,R,ugm-3,36,R,ugm-3,80,R,ugm-3
13-01-2001,17:00,48,R,ugm-3,40,R,ugm-3,113,R,ugm-3
13-01-2001,18:00,,,,,,,,,
13-01-2001,19:00,43,R,ugm-3,36,R,ugm-3,101,R,ugm-3
13-01-2001,20:00,33,R,ugm-3,31,R,ugm-3,80,R,ugm-3
13-01-2001,21:00,30,R,ugm-3,31,R,ugm-3,76,R,ugm-3
13-01-2001,22:00,23,R,ugm-3,27,R,ugm-3,61,R,ugm-3
13-01-2001,23:00,23,R,ugm-3,27,R,ugm-3,61,R,ugm-3
13-01-2001,24:00,19,R,ugm-3,23,R,ugm-3,52,R,ugm-3
14-01-2001,01:00,10,R,ugm-3,17,R,ugm-3,32,R,ugm-3
14-01-2001,02:00,6,R,ugm-3,19,R,ugm-3,29,R,ugm-3
14-01-2001,03:00,6,R,ugm-3,19,R,ugm-3,29,R,ugm-3
14-01-2001,04:00,5,R,ugm-3,17,R,ugm-3,25,R,ugm-3
14-01-2001,05:00,4,R,ugm-3,15,R,ugm-3,21,R,ugm-3
14-01-2001,06:00,3,R,ugm-3,15,R,ugm-3,19,R,ugm-3
14-01-2001,07:00,5,R,ugm-3,17,R,ugm-3,25,R,ugm-3
14-01-2001,08:00,8,R,ugm-3,19,R,ugm-3,31,R,ugm-3
14-01-2001,09:00,6,R,ugm-3,19,R,ugm-3,29,R,ugm-3
14-01-2001,10:00,9,R,ugm-3,17,R,ugm-3,31,R,ugm-3
14-01-2001,11:00,15,R,ugm-3,19,R,ugm-3,42,R,ugm-3
14-01-2001,12:00,16,R,ugm-3,19,R,ugm-3,44,R,ugm-3
14-01-2001,13:00,15,R,ugm-3,19,R,ugm-3,42,R,ugm-3
14-01-2001,14:00,16,R,ugm-3,19,R,ugm-3,44,R,ugm-3
14-01-2001,15:00,15,R,ugm-3,21,R,ugm-3,44,R,ugm-3
14-01-2001,16:00,15,R,ugm-3,23,R,ugm-3,46,R,ugm-3
14-01-2001,17:00,15,R,ugm-3,27,R,ugm-3,50,R,ugm-3
14-01-2001,18:00,11,R,ugm-3,25,R,ugm-3,42,R,ugm-3
14-01-2001,19:00,8,R,ugm-3,23,R,ugm-3,34,R,ugm-3
14-01-2001,20:00,5,R,ugm-3,19,R,ugm-3,27,R,ugm-3
14-01-2001,21:00,4,R,ugm-3,17,R,ugm-3,23,R,ugm-3
14-01-2001,22:00,4,R,ugm-3,17,R,ugm-3,23,R,ugm-3
14-01-2001,23:00,3,R,ugm-3,15,R,ugm-3,19,R,ugm-3
14-01-2001,24:00,0,R,ugm-3,10,R,ugm-3,10,R,ugm-3
15-01-2001,01:00,0,R,ugm-3,8,R,ugm-3,8,R,ugm-3
15-01-2001,02:00,0,R,ugm-3,6,R,ugm-3,6,R,ugm-3
15-01-2001,03:00,0,R,ugm-3,8,R,ugm-3,8,R,ugm-3
15-01-2001,04:00,0,R,ugm-3,6,R,ugm-3,6,R,ugm-3
15-01-2001,05:00,3,R,ugm-3,10,R,ugm-3,13,R,ugm-3
15-01-2001,06:00,1,R,ugm-3,11,R,ugm-3,13,R,ugm-3
15-01-2001,07:00,3,R,ugm-3,15,R,ugm-3,19,R,ugm-3
15-01-2001,08:00,23,R,ugm-3,27,R,ugm-3,61,R,ugm-3
15-01-2001,09:00,53,R,ugm-3,31,R,ugm-3,111,R,ugm-3
15-01-2001,10:00,51,R,ugm-3,25,R,ugm-3,103,R,ugm-3
15-01-2001,11:00,44,R,ugm-3,25,R,ugm-3,92,R,ugm-3
15-01-2001,12:00,40,R,ugm-3,21,R,ugm-3,82,R,ugm-3
15-01-2001,13:00,41,R,ugm-3,21,R,ugm-3,84,R,ugm-3
15-01-2001,14:00,35,R,ugm-3,21,R,ugm-3,74,R,ugm-3
15-01-2001,15:00,40,R,ugm-3,25,R,ugm-3,86,R,ugm-3
15-01-2001,16:00,50,R,ugm-3,27,R,ugm-3,103,R,ugm-3
15-01-2001,17:00,78,R,ugm-3,31,R,ugm-3,149,R,ugm-3
15-01-2001,18:00,90,R,ugm-3,34,R,ugm-3,172,R,ugm-3
15-01-2001,19:00,79,R,ugm-3,32,R,ugm-3,153,R,ugm-3
15-01-2001,20:00,84,R,ugm-3,31,R,ugm-3,159,R,ugm-3
15-01-2001,21:00,81,R,ugm-3,29,R,ugm-3,153,R,ugm-3
15-01-2001,22:00,98,R,ugm-3,31,R,ugm-3,180,R,ugm-3
15-01-2001,23:00,101,R,ugm-3,31,R,ugm-3,185,R,ugm-3
15-01-2001,24:00,93,R,ugm-3,31,R,ugm-3,172,R,ugm-3
16-01-2001,01:00,90,R,ugm-3,31,R,ugm-3,168,R,ugm-3
16-01-2001,02:00,89,R,ugm-3,29,R,ugm-3,164,R,ugm-3
16-01-2001,03:00,74,R,ugm-3,23,R,ugm-3,136,R,ugm-3
16-01-2001,04:00,60,R,ugm-3,21,R,ugm-3,113,R,ugm-3
16-01-2001,05:00,55,R,ugm-3,21,R,ugm-3,105,R,ugm-3
16-01-2001,06:00,61,R,ugm-3,23,R,ugm-3,117,R,ugm-3
16-01-2001,07:00,79,R,ugm-3,25,R,ugm-3,145,R,ugm-3
16-01-2001,08:00,115,R,ugm-3,29,R,ugm-3,204,R,ugm-3
16-01-2001,09:00,179,R,ugm-3,42,R,ugm-3,315,R,ugm-3
16-01-2001,10:00,201,R,ugm-3,52,R,ugm-3,359,R,ugm-3
16-01-2001,11:00,,,,,,,,,
16-01-2001,12:00,,,,,,,,,
16-01-2001,13:00,,,,,,,,,
16-01-2001,14:00,134,R,ugm-3,50,R,ugm-3,254,R,ugm-3
16-01-2001,15:00,88,R,ugm-3,46,R,ugm-3,180,R,ugm-3
16-01-2001,16:00,125,R,ugm-3,53,R,ugm-3,244,R,ugm-3
16-01-2001,17:00,250,R,ugm-3,69,R,ugm-3,451,R,ugm-3
16-01-2001,18:00,253,R,ugm-3,69,R,ugm-3,455,R,ugm-3
16-01-2001,19:00,318,R,ugm-3,74,R,ugm-3,560,R,ugm-3
16-01-2001,20:00,214,R,ugm-3,59,R,ugm-3,386,R,ugm-3
16-01-2001,21:00,204,R,ugm-3,55,R,ugm-3,367,R,ugm-3
16-01-2001,22:00,241,R,ugm-3,61,R,ugm-3,430,R,ugm-3
16-01-2001,23:00,230,R,ugm-3,59,R,ugm-3,411,R,ugm-3
16-01-2001,24:00,209,R,ugm-3,55,R,ugm-3,374,R,ugm-3
17-01-2001,01:00,176,R,ugm-3,48,R,ugm-3,317,R,ugm-3
17-01-2001,02:00,99,R,ugm-3,36,R,ugm-3,187,R,ugm-3
17-01-2001,03:00,81,R,ugm-3,34,R,ugm-3,159,R,ugm-3
17-01-2001,04:00,65,R,ugm-3,32,R,ugm-3,132,R,ugm-3
17-01-2001,05:00,70,R,ugm-3,32,R,ugm-3,139,R,ugm-3
17-01-2001,06:00,73,R,ugm-3,34,R,ugm-3,145,R,ugm-3
17-01-2001,07:00,103,R,ugm-3,34,R,ugm-3,191,R,ugm-3
17-01-2001,08:00,158,R,ugm-3,42,R,ugm-3,283,R,ugm-3
17-01-2001,09:00,210,R,ugm-3,50,R,ugm-3,371,R,ugm-3
17-01-2001,10:00,251,R,ugm-3,57,R,ugm-3,441,R,ugm-3
17-01-2001,11:00,321,R,ugm-3,69,R,ugm-3,560,R,ugm-3
17-01-2001,12:00,331,R,ugm-3,73,R,ugm-3,579,R,ugm-3
17-01-2001,13:00,213,R,ugm-3,67,R,ugm-3,392,R,ugm-3
17-01-2001,14:00,168,R,ugm-3,63,R,ugm-3,319,R,ugm-3
17-01-2001,15:00,104,R,ugm-3,50,R,ugm-3,208,R,ugm-3
17-01-2001,16:00,144,R,ugm-3,50,R,ugm-3,269,R,ugm-3
17-01-2001,17:00,150,R,ugm-3,52,R,ugm-3,281,R,ugm-3
17-01-2001,18:00,146,R,ugm-3,52,R,ugm-3,275,R,ugm-3
17-01-2001,19:00,150,R,ugm-3,48,R,ugm-3,277,R,ugm-3
17-01-2001,20:00,171,R,ugm-3,52,R,ugm-3,313,R,ugm-3
17-01-2001,21:00,176,R,ugm-3,52,R,ugm-3,321,R,ugm-3
17-01-2001,22:00,205,R,ugm-3,53,R,ugm-3,367,R,ugm-3
17-01-2001,23:00,299,R,ugm-3,55,R,ugm-3,512,R,ugm-3
17-01-2001,24:00,231,R,ugm-3,48,R,ugm-3,401,R,ugm-3
18-01-2001,01:00,134,R,ugm-3,40,R,ugm-3,244,R,ugm-3
18-01-2001,02:00,135,R,ugm-3,34,R,ugm-3,241,R,ugm-3
18-01-2001,03:00,118,R,ugm-3,32,R,ugm-3,212,R,ugm-3
18-01-2001,04:00,105,R,ugm-3,29,R,ugm-3,189,R,ugm-3
18-01-2001,05:00,103,R,ugm-3,29,R,ugm-3,185,R,ugm-3
18-01-2001,06:00,104,R,ugm-3,31,R,ugm-3,189,R,ugm-3
18-01-2001,07:00,153,R,ugm-3,40,R,ugm-3,273,R,ugm-3
18-01-2001,08:00,266,R,ugm-3,55,R,ugm-3,462,R,ugm-3
18-01-2001,09:00,385,R,ugm-3,71,R,ugm-3,659,R,ugm-3
18-01-2001,10:00,308,R,ugm-3,67,R,ugm-3,537,R,ugm-3
18-01-2001,11:00,371,R,ugm-3,69,R,ugm-3,636,R,ugm-3
18-01-2001,12:00,286,R,ugm-3,59,R,ugm-3,497,R,ugm-3
18-01-2001,13:00,240,R,ugm-3,57,R,ugm-3,424,R,ugm-3
18-01-2001,14:00,168,R,ugm-3,53,R,ugm-3,309,R,ugm-3
18-01-2001,15:00,240,R,ugm-3,63,R,ugm-3,430,R,ugm-3
18-01-2001,16:00,200,R,ugm-3,57,R,ugm-3,363,R,ugm-3
18-01-2001,17:00,230,R,ugm-3,61,R,ugm-3,413,R,ugm-3
18-01-2001,18:00,245,R,ugm-3,69,R,ugm-3,443,R,ugm-3
18-01-2001,19:00,268,R,ugm-3,63,R,ugm-3,472,R,ugm-3
18-01-2001,20:00,204,R,ugm-3,57,R,ugm-3,369,R,ugm-3
18-01-2001,21:00,190,R,ugm-3,53,R,ugm-3,344,R,ugm-3
18-01-2001,22:00,156,R,ugm-3,50,R,ugm-3,288,R,ugm-3
18-01-2001,23:00,158,R,ugm-3,46,R,ugm-3,287,R,ugm-3
18-01-2001,24:00,160,R,ugm-3,42,R,ugm-3,287,R,ugm-3
19-01-2001,01:00,75,R,ugm-3,40,R,ugm-3,155,R,ugm-3
19-01-2001,02:00,65,R,ugm-3,40,R,ugm-3,139,R,ugm-3
19-01-2001,03:00,40,R,ugm-3,36,R,ugm-3,97,R,ugm-3
19-01-2001,04:00,35,R,ugm-3,36,R,ugm-3,90,R,ugm-3
19-01-2001,05:00,78,R,ugm-3,38,R,ugm-3,157,R,ugm-3
19-01-2001,06:00,84,R,ugm-3,38,R,ugm-3,166,R,ugm-3
19-01-2001,07:00,126,R,ugm-3,44,R,ugm-3,237,R,ugm-3
19-01-2001,08:00,181,R,ugm-3,53,R,ugm-3,330,R,ugm-3
19-01-2001,09:00,284,R,ugm-3,63,R,ugm-3,497,R,ugm-3
19-01-2001,10:00,221,R,ugm-3,57,R,ugm-3,395,R,ugm-3
19-01-2001,11:00,211,R,ugm-3,63,R,ugm-3,386,R,ugm-3
19-01-2001,12:00,248,R,ugm-3,61,R,ugm-3,439,R,ugm-3
19-01-2001,13:00,253,R,ugm-3,59,R,ugm-3,445,R,ugm-3
19-01-2001,14:00,329,R,ugm-3,71,R,ugm-3,573,R,ugm-3
19-01-2001,15:00,314,R,ugm-3,69,R,ugm-3,548,R,ugm-3
19-01-2001,16:00,264,R,ugm-3,63,R,ugm-3,466,R,ugm-3
19-01-2001,17:00,320,R,ugm-3,67,R,ugm-3,556,R,ugm-3
19-01-2001,18:00,283,R,ugm-3,61,R,ugm-3,493,R,ugm-3
19-01-2001,19:00,215,R,ugm-3,55,R,ugm-3,384,R,ugm-3
19-01-2001,20:00,185,R,ugm-3,53,R,ugm-3,336,R,ugm-3
19-01-2001,21:00,161,R,ugm-3,50,R,ugm-3,296,R,ugm-3
19-01-2001,22:00,121,R,ugm-3,46,R,ugm-3,231,R,ugm-3
19-01-2001,23:00,116,R,ugm-3,42,R,ugm-3,220,R,ugm-3
19-01-2001,24:00,141,R,ugm-3,44,R,ugm-3,260,R,ugm-3
20-01-2001,01:00,64,R,ugm-3,40,R,ugm-3,138,R,ugm-3
20-01-2001,02:00,,,,,,,,,
20-01-2001,03:00,59,R,ugm-3,36,R,ugm-3,126,R,ugm-3
20-01-2001,04:00,48,R,ugm-3,34,R,ugm-3,107,R,ugm-3
20-01-2001,05:00,50,R,ugm-3,34,R,ugm-3,111,R,ugm-3
20-01-2001,06:00,54,R,ugm-3,42,R,ugm-3,124,R,ugm-3
20-01-2001,07:00,88,R,ugm-3,46,R,ugm-3,180,R,ugm-3
20-01-2001,08:00,103,R,ugm-3,48,R,ugm-3,204,R,ugm-3
20-01-2001,09:00,126,R,ugm-3,52,R,ugm-3,244,R,ugm-3
20-01-2001,10:00,136,R,ugm-3,52,R,ugm-3,260,R,ugm-3
20-01-2001,11:00,154,R,ugm-3,46,R,ugm-3,281,R,ugm-3
20-01-2001,12:00,146,R,ugm-3,46,R,ugm-3,269,R,ugm-3
20-01-2001,13:00,150,R,ugm-3,40,R,ugm-3,269,R,ugm-3
20-01-2001,14:00,145,R,ugm-3,44,R,ugm-3,265,R,ugm-3
20-01-2001,15:00,125,R,ugm-3,42,R,ugm-3,233,R,ugm-3
20-01-2001,16:00,138,R,ugm-3,42,R,ugm-3,252,R,ugm-3
20-01-2001,17:00,206,R,ugm-3,53,R,ugm-3,369,R,ugm-3
20-01-2001,18:00,100,R,ugm-3,38,R,ugm-3,191,R,ugm-3
20-01-2001,19:00,116,R,ugm-3,46,R,ugm-3,223,R,ugm-3
20-01-2001,20:00,85,R,ugm-3,38,R,ugm-3,168,R,ugm-3
20-01-2001,21:00,73,R,ugm-3,38,R,ugm-3,149,R,ugm-3
20-01-2001,22:00,55,R,ugm-3,34,R,ugm-3,118,R,ugm-3
20-01-2001,23:00,51,R,ugm-3,32,R,ugm-3,111,R,ugm-3